[[{"header":{"parameterUnit":"m.s-1","parameterCategory":1,"la1":30.2991,"la2":30.254,"lo1":-89.0895,"lo2":-89.0444,"dy":0.0017,"dx":0.0017,"nx":28,"ny":28,"refTime":"2024-02-27T09:00:00:Z","depth":0,"parameterNumber":2,"parameterNumberName":"U-component_of_WINDS"},"data":[0,0,0,0,0,0,0,0,0,0,0,0,0,0,0,0,0,0,0,0,0,0,0,0,0,0,0,0,0,0,0,0,0,0,0,0,0,0,0,0,0,0,0,0,0,0,0,0,0,0,0,0,0,0,0,0,0,0,-5.7544,-5.7545,0,-5.7612,-5.7613,-5.7614,-5.7498,-5.7494,-5.7491,-5.7487,-5.7556,-5.7561,-5.7567,0,0,0,0,0,0,0,0,0,0,0,0,0,-5.7314,-5.7319,-5.7544,-5.7545,-5.7546,-5.7612,-5.7613,-5.7614,-5.7499,-5.7494,-5.749,-5.7485,-5.7554,-5.7561,-5.7567,0,0,0,0,0,0,0,0,0,0,0,0,0,-5.7401,-5.732,-5.7544,-5.7496,-5.7493,-5.7612,-5.7613,-5.7614,-5.75,-5.7494,-5.7488,-5.7483,-5.7552,-5.756,-5.7568,-5.7736,0,0,-5.7593,-5.7597,0,0,0,0,0,0,0,0,-5.7396,-5.741,-5.7503,-5.75,-5.7496,-5.7541,-5.7557,-5.7655,-5.7502,-5.7497,-5.7487,-5.748,-5.7556,-5.7563,-5.7589,-5.774,-5.7743,-5.7594,-5.7599,-5.7603,-5.7605,0,0,0,0,0,0,0,-5.739,-5.7406,-5.7571,-5.7504,-5.75,-5.7471,-5.7477,-5.7575,-5.7559,-5.7497,-5.7489,-5.7499,-5.7553,-5.7581,-5.759,-5.7744,-5.7594,-5.7601,-5.7606,-5.7609,-5.8036,-5.8042,0,0,0,0,0,0,-5.739,-5.7402,-5.7569,-5.7573,-5.7431,-5.748,-5.7487,-5.7532,-5.7557,-5.7555,-5.7504,-5.7493,-5.757,-5.758,-5.7592,-5.779,-5.7603,-5.761,-5.7615,-5.8029,-5.8037,-5.8044,0,0,0,0,0,0,-5.7386,-5.7406,-5.7566,-5.7485,-5.7503,-5.7491,-5.7542,-5.7537,-5.7565,-5.7562,-5.7558,-5.7536,-5.7566,-5.758,-5.7701,-5.7791,-5.7614,-5.7621,-5.8022,-5.8032,-5.804,-5.819,0,0,0,0,0,0,-5.738,-5.7405,-5.7469,-5.7488,-5.7508,-5.7675,-5.7548,-5.7542,-5.758,-5.7566,-5.7591,-5.759,-5.7562,-5.769,-5.771,-5.7799,-5.7628,-5.8014,-5.8026,-5.8037,-5.8177,-5.8203,-5.8226,0,0,0,0,0,-5.7372,-5.7509,-5.7473,-5.7494,-5.7588,-5.7681,-5.7692,-5.7658,-5.7587,-5.7652,-5.7649,-5.7589,-5.7778,-5.7703,-5.7724,-5.7818,-5.8008,-5.8023,-5.8036,-5.8166,-5.8198,-5.8225,0,0,0,0,0,0,-5.7501,-5.751,-5.7471,-5.7618,-5.765,-5.7661,-5.7741,-5.7694,-5.7746,-5.7731,-5.7686,-5.7693,-5.7824,-5.7832,-5.7749,-5.7982,-5.7881,-5.79,-5.7972,-5.8002,-5.8026,-5.8022,-5.7635,0,0,0,0,0,-5.7547,-5.7622,-5.7625,-5.7754,-5.7772,-5.7754,-5.7793,-5.7764,-5.7795,-5.7808,-5.7814,-5.7847,-5.7913,-5.7958,-5.8019,-5.8177,-5.8181,-5.8252,-5.8276,-5.8296,-5.8314,-5.8398,-5.843,-5.8091,-5.8091,-5.8091,0,0,-5.7642,-5.7656,-5.7706,-5.7781,-5.7802,-5.788,-5.7766,-5.7854,-5.7912,-5.7821,-5.7936,-5.7942,-5.7975,-5.8116,-5.8178,-5.8127,-5.8408,-5.8315,-5.8331,-5.8337,-5.8416,-5.8448,-5.8477,-5.8101,-5.8099,-5.8097,0,0,-5.7856,-5.7874,-5.7983,-5.8007,-5.804,-5.8027,-5.8054,-5.8073,-5.8074,-5.8188,-5.8122,-5.8189,-5.8305,-5.8331,-5.836,-5.8583,-5.8529,-5.8604,-5.8733,-5.8815,-5.8842,-5.8865,-5.8946,-5.8975,-5.8621,-5.8621,-5.8622,0,-5.797,-5.8086,-5.8046,-5.8139,-5.8173,-5.8095,-5.8205,-5.823,-5.8282,-5.8307,-5.825,-5.8393,-5.8409,-5.8555,-5.861,-5.8635,-5.8664,-5.8601,-5.8841,-5.8864,-5.8886,-5.8962,-5.8992,-5.863,-5.8629,-5.8628,-5.8627,0,-5.8224,-5.8306,-5.839,-5.8443,-5.8487,-5.8588,-5.8563,-5.8613,-5.8579,-5.8573,-5.869,-5.8707,-5.877,-5.8802,-5.8771,-5.8944,-5.8911,-5.8849,-5.8746,-5.8928,-5.8998,-5.9027,-5.8643,-5.864,-5.8637,-5.8635,0,0,-5.8523,-5.8551,-5.8583,-5.8606,-5.8637,-5.8699,-5.8796,-5.8858,-5.8901,-5.8939,-5.902,-5.9119,-5.9061,-5.9094,-5.9064,-5.9137,-5.9313,-5.9064,-5.9064,-5.9111,-5.9505,-5.9553,-5.9587,-5.9277,-5.9282,-5.9286,-5.9502,0,-5.8735,-5.8904,-5.8871,-5.9036,-5.911,-5.9037,-5.9121,-5.9149,-5.9145,-5.9208,-5.9202,-5.9274,-5.9192,-5.9211,-5.9279,-5.9277,-5.9392,-5.9261,-5.9352,-5.9356,-5.9347,-5.9624,-5.9675,-5.9878,-5.953,-5.9534,-5.9538,0,-5.9007,-5.9056,-5.9228,-5.9247,-5.9277,-5.9354,-5.9408,-5.9468,-5.9498,-5.949,-5.9527,-5.9483,-5.958,-5.9475,-5.9608,-5.952,-5.9555,-5.9559,-5.9566,-5.9574,-5.9458,-5.964,-5.9942,-5.9973,-5.958,-5.9577,-5.9574,0,-5.9208,-5.9316,-5.9434,-5.9455,-5.948,-5.9536,-5.9549,-5.9573,-5.9612,-5.9659,-5.9684,-5.9742,-5.9774,-5.9819,-5.9792,-5.9719,-5.9929,-5.9823,-5.9925,-5.9926,-5.9974,-5.9972,-6.0286,-5.9996,-5.9995,-5.9995,-5.9994,0,-5.945,-5.9559,-5.9525,-5.9597,-5.9716,-5.9677,-5.9796,-5.9799,-5.9822,-5.9893,-5.9832,-5.99,-5.986,-5.9925,-5.9905,-6.0018,-6.0032,-6.0028,-6.0022,-6.0035,-6.0035,-6.0058,-6.0043,-6.0003,-6.0001,-5.9999,-5.9998,0,-5.9696,-5.9677,-5.98,-5.9813,-5.9819,-5.9907,-5.9918,-5.9985,-5.9976,-6.0067,-6.0086,-6.0072,-6.0146,-6.0123,-6.0202,-6.0188,-6.0332,-6.0306,-6.0322,-6.0316,-6.042,-6.0411,-6.0761,-6.0805,-6.0485,-6.0488,-6.0491,0,-5.9852,-5.9934,-5.9956,-6.0,-6.0017,-6.0088,-6.0128,-6.0092,-6.0135,-6.0176,-6.0238,-6.0306,-6.0359,-6.0479,-6.0476,-6.0536,-6.0512,-6.0631,-6.0521,-6.0531,-6.0515,-6.0511,-6.0519,-6.0653,-6.0657,-6.066,-6.0662,0,-6.0131,-6.0118,-6.0178,-6.0235,-6.0284,-6.0328,-6.0365,-6.0404,-6.037,-6.0423,-6.0497,-6.0538,-6.0618,-6.0687,-6.0741,-6.0753,-6.0703,-6.0697,-6.0724,-6.0738,-6.0744,-6.0743,-6.0383,-6.0689,-6.0686,-6.0684,-6.0683,-6.0682,-6.0337,-6.0407,-6.0433,-6.0502,-6.0526,-6.0563,-6.0627,-6.0626,-6.0687,-6.075,-6.0725,-6.0811,-6.0838,-6.0905,-6.0925,-6.0991,-6.0946,-6.0985,-6.0995,-6.1006,-6.1019,-6.0733,-6.1001,-6.1,-6.1,-6.0999,-6.0998,0,-6.0614,-6.0627,-6.0691,-6.0746,-6.08,-6.0747,-6.0785,-6.0834,-6.0911,-6.094,-6.0993,-6.1079,-6.1145,-6.1146,-6.1208,-6.126,-6.1239,-6.1278,-6.1274,-6.1278,-6.1056,-6.1027,-6.1294,-6.1294,-6.1294,-6.1294,-6.1294,-6.1294,-6.0765,-6.088,-6.0869,-6.0995,-6.1007,-6.1091,-6.1118,-6.1151,-6.1174,-6.1273,-6.1327,-6.1328,-6.1347,-6.1409,-6.1467,-6.1465,-6.1491,-6.1539,-6.1529,-6.1323,-6.1293,-6.1265,-6.1238,-6.1545,-6.1545,-6.1745,-6.1747,-6.1749]},{"header":{"parameterUnit":"m.s-1","parameterCategory":1,"la1":30.2991,"la2":30.254,"lo1":-89.0895,"lo2":-89.0444,"dy":0.0017,"dx":0.0017,"nx":28,"ny":28,"refTime":"2024-02-27T09:00:00:Z","depth":0,"parameterNumber":3,"parameterNumberName":"V-component_of_WINDS"},"data":[0,0,0,0,0,0,0,0,0,0,0,0,0,0,0,0,0,0,0,0,0,0,0,0,0,0,0,0,0,0,0,0,0,0,0,0,0,0,0,0,0,0,0,0,0,0,0,0,0,0,0,0,0,0,0,0,0,0,-6.2445,-6.2446,0,-6.2507,-6.2508,-6.2508,-6.245,-6.2447,-6.2445,-6.2443,-6.2502,-6.2505,-6.2509,0,0,0,0,0,0,0,0,0,0,0,0,0,-6.227,-6.2274,-6.2445,-6.2446,-6.2446,-6.2507,-6.2508,-6.2509,-6.245,-6.2447,-6.2444,-6.2442,-6.2501,-6.2505,-6.2509,0,0,0,0,0,0,0,0,0,0,0,0,0,-6.234,-6.2275,-6.2445,-6.2425,-6.2423,-6.2507,-6.2508,-6.2509,-6.2451,-6.2447,-6.2443,-6.244,-6.2499,-6.2505,-6.251,-6.2615,0,0,-6.2527,-6.253,0,0,0,0,0,0,0,0,-6.2336,-6.2347,-6.2427,-6.2426,-6.2425,-6.2467,-6.2468,-6.2544,-6.2451,-6.244,-6.2443,-6.2438,-6.2493,-6.2499,-6.2518,-6.2618,-6.262,-6.2528,-6.2531,-6.2534,-6.2535,0,0,0,0,0,0,0,-6.2332,-6.2344,-6.2469,-6.2428,-6.2427,-6.2411,-6.2417,-6.2482,-6.2485,-6.2441,-6.2437,-6.2445,-6.2492,-6.2513,-6.2519,-6.2621,-6.2528,-6.2533,-6.2536,-6.2538,-6.2808,-6.2812,0,0,0,0,0,0,-6.233,-6.234,-6.2467,-6.2471,-6.2371,-6.2417,-6.2423,-6.2457,-6.2484,-6.2485,-6.2448,-6.2442,-6.2505,-6.2512,-6.2521,-6.2644,-6.2534,-6.2539,-6.2542,-6.2805,-6.2809,-6.2813,0,0,0,0,0,0,-6.2326,-6.2342,-6.2465,-6.2405,-6.2419,-6.2423,-6.2461,-6.246,-6.2481,-6.249,-6.249,-6.2469,-6.2502,-6.2513,-6.2592,-6.2646,-6.2541,-6.2547,-6.28,-6.2806,-6.2811,-6.2893,0,0,0,0,0,0,-6.2321,-6.2341,-6.2382,-6.2406,-6.2423,-6.2537,-6.2465,-6.2464,-6.2492,-6.2484,-6.251,-6.2511,-6.25,-6.2584,-6.2598,-6.2652,-6.2551,-6.2795,-6.2803,-6.2809,-6.2886,-6.2901,-6.2914,0,0,0,0,0,-6.2315,-6.2402,-6.2385,-6.24,-6.2475,-6.254,-6.2549,-6.2537,-6.2496,-6.2537,-6.2542,-6.251,-6.2638,-6.2592,-6.2607,-6.2664,-6.2792,-6.2801,-6.2809,-6.288,-6.2898,-6.2914,0,0,0,0,0,0,-6.2383,-6.2405,-6.2386,-6.2483,-6.2511,-6.253,-6.2581,-6.2558,-6.2596,-6.2588,-6.2569,-6.2575,-6.2659,-6.2669,-6.2618,-6.2766,-6.2708,-6.272,-6.2756,-6.2774,-6.2788,-6.2784,-6.2556,0,0,0,0,0,-6.241,-6.2463,-6.2478,-6.2563,-6.2577,-6.2577,-6.2605,-6.2593,-6.262,-6.2631,-6.2642,-6.2668,-6.2714,-6.2745,-6.2787,-6.2887,-6.2891,-6.2933,-6.2947,-6.2959,-6.2969,-6.3021,-6.304,-6.2841,-6.2841,-6.2841,0,0,-6.2464,-6.2483,-6.2518,-6.2577,-6.2597,-6.265,-6.2587,-6.2647,-6.2686,-6.264,-6.2715,-6.2724,-6.2752,-6.2842,-6.2882,-6.2853,-6.3025,-6.297,-6.2979,-6.2983,-6.3032,-6.305,-6.3067,-6.2847,-6.2846,-6.2845,0,0,-6.2592,-6.2612,-6.2684,-6.2705,-6.2736,-6.2735,-6.2753,-6.2776,-6.2781,-6.2856,-6.2822,-6.2867,-6.2947,-6.2968,-6.2989,-6.3123,-6.3094,-6.3137,-6.3211,-6.3262,-6.3278,-6.3291,-6.3338,-6.3355,-6.3147,-6.3148,-6.3148,0,-6.2656,-6.2737,-6.2724,-6.2786,-6.2812,-6.2774,-6.2845,-6.2866,-6.2909,-6.2927,-6.2894,-6.2993,-6.3008,-6.3102,-6.3134,-6.3153,-6.3171,-6.3134,-6.3277,-6.329,-6.3303,-6.3347,-6.3365,-6.3153,-6.3152,-6.3152,-6.3151,0,-6.2814,-6.287,-6.2924,-6.2968,-6.3,-6.3067,-6.3062,-6.3095,-6.308,-6.3082,-6.3159,-6.3176,-6.3221,-6.3243,-6.3228,-6.3334,-6.3314,-6.328,-6.3221,-6.3327,-6.3368,-6.3385,-6.316,-6.3158,-6.3157,-6.3155,0,0,-6.2986,-6.3021,-6.3041,-6.306,-6.3091,-6.3134,-6.3197,-6.3243,-6.3271,-6.3302,-6.3354,-6.3421,-6.3389,-6.3413,-6.34,-6.3445,-6.3548,-6.3404,-6.3404,-6.343,-6.3664,-6.369,-6.371,-6.3529,-6.3533,-6.3535,-6.3661,0,-6.3114,-6.3227,-6.3216,-6.3323,-6.3374,-6.3337,-6.3392,-6.3416,-6.3419,-6.3461,-6.3464,-6.3512,-6.3466,-6.348,-6.3523,-6.3527,-6.3595,-6.3518,-6.3576,-6.3578,-6.357,-6.3731,-6.3759,-6.3878,-6.3677,-6.368,-6.3682,0,-6.3279,-6.3317,-6.3429,-6.345,-6.3471,-6.3522,-6.3561,-6.3603,-6.3628,-6.3627,-6.3653,-6.3632,-6.3694,-6.3634,-6.3719,-6.3666,-6.3689,-6.3694,-6.3699,-6.3703,-6.3637,-6.374,-6.3915,-6.3933,-6.3708,-6.3706,-6.3704,0,-6.3393,-6.3471,-6.3548,-6.3565,-6.3593,-6.3629,-6.3641,-6.3663,-6.3691,-6.3725,-6.3742,-6.3783,-6.3805,-6.3836,-6.3825,-6.3783,-6.3911,-6.3851,-6.391,-6.3911,-6.3939,-6.3937,-6.412,-6.3955,-6.3955,-6.3954,-6.3954,0,-6.3537,-6.3607,-6.3599,-6.3647,-6.3723,-6.3708,-6.3783,-6.3791,-6.3811,-6.3857,-6.3827,-6.3871,-6.3856,-6.3898,-6.389,-6.396,-6.397,-6.397,-6.3967,-6.3973,-6.3973,-6.3987,-6.3978,-6.3959,-6.3958,-6.3957,-6.3956,0,-6.3677,-6.3675,-6.3756,-6.3776,-6.3782,-6.3838,-6.3853,-6.3896,-6.3897,-6.3956,-6.3969,-6.3969,-6.4017,-6.401,-6.4063,-6.4058,-6.4145,-6.4132,-6.4137,-6.4134,-6.4194,-6.4188,-6.4392,-6.4417,-6.4237,-6.4238,-6.424,0,-6.3769,-6.3822,-6.3847,-6.3877,-6.3893,-6.3941,-6.3969,-6.3956,-6.3986,-6.4018,-6.4057,-6.4103,-6.4139,-6.4217,-6.4221,-6.4261,-6.4248,-6.4317,-6.4254,-6.4258,-6.4249,-6.4245,-6.425,-6.4329,-6.4332,-6.4333,-6.4335,0,-6.3932,-6.3928,-6.3971,-6.4013,-6.4047,-6.4079,-6.4108,-6.4133,-6.4123,-6.4157,-6.4207,-6.4235,-6.429,-6.4335,-6.4372,-6.4383,-6.4357,-6.4354,-6.437,-6.4376,-6.4377,-6.4376,-6.417,-6.435,-6.4348,-6.4347,-6.4346,-6.4346,-6.405,-6.4095,-6.412,-6.4168,-6.4188,-6.4215,-6.4257,-6.4262,-6.4304,-6.4348,-6.4337,-6.4393,-6.4415,-6.4463,-6.4478,-6.452,-6.4495,-6.4518,-6.4524,-6.4529,-6.4536,-6.437,-6.4527,-6.4526,-6.4526,-6.4526,-6.4525,0,-6.4211,-6.4225,-6.4269,-6.4311,-6.4348,-6.4321,-6.4351,-6.4383,-6.4433,-6.4457,-6.4493,-6.4549,-6.4592,-6.4599,-6.464,-6.4672,-6.4661,-6.4683,-6.468,-6.4683,-6.4557,-6.4539,-6.4691,-6.4691,-6.4691,-6.4691,-6.4691,-6.4691,-6.4299,-6.4373,-6.4372,-6.4455,-6.4468,-6.4523,-6.4543,-6.4567,-6.4585,-6.465,-6.4686,-6.4691,-6.4707,-6.4749,-6.4787,-6.4787,-6.4803,-6.483,-6.4826,-6.4709,-6.4692,-6.4676,-6.4659,-6.4834,-6.4834,-6.4948,-6.4949,-6.495]}]]